Location: Dal�� Lhota
(48.7500°N, 14.0167°E)
Time: 21:46:23
(UTC+00:00)

ISS - Visible Passes

Search period start: 23 June 2021 00:00
Search period end: 03 July 2021 00:00
Orbit: 417 x 422 km, 51.6° (Epoch: 23 June)

Date Brightness Start Highest point End Pass type
(mag) Time Alt. Az. Time Alt. Az. Time Alt. Az.
27 Jun -1.1 02:15:54 10° SSE 02:16:57 11° SE 02:18:01 10° ESE visible
29 Jun -2.2 02:15:35 10° SSW 02:18:26 25° SE 02:21:16 10° E visible
30 Jun -1.7 01:29:24 12° S 01:31:08 17° SE 01:33:26 10° E visible
01 Jul -1.3 00:43:36 11° SE 00:43:52 11° SE 00:44:58 10° ESE visible
01 Jul -3.4 02:16:47 10° SW 02:20:05 55° SSE 02:23:24 10° ENE visible
02 Jul -3.0 01:30:43 19° SSW 01:32:41 37° SSE 01:35:50 10° ENE visible
